Location: Pasadena, ca
(34.1243°N, 118.1037°W)
Time: 15:27:52
(UTC-07:00)

Vanguard 3 - Visible Passes

Search period start: 22 July 2018 00:00
Search period end: 01 August 2018 00:00
Orbit: 508 x 3264 km, 33.3° (Epoch: 22 July)

Date Brightness Start Highest point End Pass type
(mag) Time Alt. Az. Time Alt. Az. Time Alt. Az.
22 Jul 7.7 22:22:51 10° W 22:31:37 52° SSW 22:32:15 50° S visible
23 Jul 8.2 21:05:58 10° W 21:17:42 75° SSW 21:22:27 21° ESE visible
23 Jul 9.2 23:23:00 10° W 23:27:01 22° WSW 23:27:01 22° WSW visible
24 Jul 8.0 22:06:09 10° W 22:15:42 48° SSW 22:17:14 41° S visible
25 Jul 8.5 20:48:59 10° W 21:01:42 71° SSW 21:07:27 17° ESE visible
25 Jul 9.2 23:06:42 10° W 23:12:01 22° SW 23:12:01 22° SW visible
26 Jul 8.4 21:49:21 10° W 21:59:40 44° SSW 22:02:15 33° SSE visible
27 Jul 8.8 20:31:54 10° W 20:45:37 67° SSW 20:52:29 13° ESE visible
27 Jul 9.3 22:50:20 10° W 22:56:49 21° SW 22:57:03 21° SW visible
28 Jul 8.8 21:32:29 10° W 21:43:31 41° SW 21:47:18 26° SSE visible
29 Jul 9.1 20:14:45 10° W 20:29:24 63° SSW 20:37:32 10° SE visible
29 Jul 9.5 22:33:56 10° W 22:40:34 19° SW 22:42:08 18° SSW visible
30 Jul 9.2 21:15:32 10° W 21:27:14 38° SW 21:32:25 19° SSE visible
31 Jul 9.7 22:17:33 10° W 22:24:13 18° SW 22:27:18 15° SSW visible
